Location: Unspecified
(0.0000°N, 0.0000°E)
Time: 07:03:21
(UTC+00:00)

Transit 4A - Pass Details

Date: 30 May 2022
Orbit: 864 x 980 km, 66.8° (Epoch: 24 June)

Event Time Altitude Azimuth Distance (km) Brightness Sun altitude
Rises 13:30:11 0° 331° (NNW) 3,530 11.4 58.6°
Reaches altitude 10° 13:32:46 10° 327° (NNW) 2,573 10.9 58.1°
Maximum altitude 13:38:33 54° 251° (WSW) 1,068 9.4 57.1°
Drops below altitude 10° 13:44:13 10° 174° (S) 2,520 10.0 56.1°
Sets 13:46:44 0° 169° (S) 3,451 10.6 55.6°
